« Back
NWS Peachtree City, Ga » Text Product » GA Regional Weather Roundup


Printer-friendly Version
Current Version              Previous Versions:   1  2  3  4  5  6  7  8  9  

Regional Weather Roundup

987
ASUS42 KFFC 251603
RWRGA
WEATHER ROUNDUP FOR GEORGIA
NATIONAL WEATHER SERVICE PEACHTREE CITY GA
1200 PM EDT SAT OCT 25 2014

NOTE: "FAIR" INDICATES FEW OR NO CLOUDS BELOW 12,000 FEET WITH NO
SIGNIFICANT WEATHER AND/OR OBSTRUCTIONS TO VISIBILITY.

* = USE WITH CAUTION. THE STATIONS MARKED WITH AN ASTERISK MAY NOT
REPORT WEATHER SUCH AS PRECIPITATION, FOG, OR THUNDER AND ARE NOT
QUALITY CONTROLLED BY NWS.

THE REMARK "TC" DENOTES TEMPERATURE READING IN DEGREES CELSIUS.

GAZ001>058-251700-
NORTH GEORGIA

CITY           SKY/WX    TMP DP  RH WIND       PRES   REMARKS
ATLANTA        SUNNY     68  44  42 N6        30.08S
ATHENS         SUNNY     68  46  45 CALM      30.07S
CHAMBLEE       SUNNY     67  39  35 VRB3      30.08S
PEACHTREE CITY SUNNY     68  42  38 N9        30.09S
ROME           SUNNY     68  47  46 VRB5      30.10S
WEST ATLANTA   SUNNY     67  43  41 N6        30.08F
GAINESVILLE    SUNNY     66  40  38 CALM      30.09S
CARTERSVILLE   SUNNY     63  45  51 VRB3      30.10F


CITY           SKY/WX    TMP DP  RH WIND       PRES   REMARKS
DALTON*        SUNNY     64  46  52 NW9       30.10S
LAWRENCEVILLE* SUNNY     66  43  42 CALM      30.08R
MARIETTA       SUNNY     67  44  43 NW6       30.09S
KENNESAW*      SUNNY     63  43  48 NW7       30.10F
$$

GAZ059>098-102>109-251700-
CENTRAL GEORGIA

CITY           SKY/WX    TMP DP  RH WIND       PRES   REMARKS
AUGUSTA-BUSH   SUNNY     69  44  40 VRB6      30.05F
AUGUSTA-DANIEL SUNNY     67  43  41 CALM      30.06F
COLUMBUS       SUNNY     68  41  37 N9        30.07F
MACON          SUNNY     66  48  52 CALM      30.05F
ROBINS AFB     SUNNY     65  51  60 VRB1      30.05F


CITY           SKY/WX    TMP DP  RH WIND       PRES   REMARKS
LAGRANGE*      SUNNY     70  51  52 N6        30.09S
SYLVANIA*      SUNNY     75  54  47 NE5       30.05S
MILLEDGEVILLE* SUNNY     66  55  68 CALM      30.05F
$$

GAZ099>101-110>166-251700-
SOUTH GEORGIA

CITY           SKY/WX    TMP DP  RH WIND       PRES   REMARKS
SAVANNAH       SUNNY     73  48  41 N5        30.04S
VALDOSTA       SUNNY     73  45  36 VRB5      30.05S
ALMA           SUNNY     73  47  39 VRB7      30.03F
ST SIMONS      SUNNY     69  51  52 NW7       30.03S
FT STEWART     SUNNY     72  47  41 CALM      30.02F
ALBANY         SUNNY     68  46  45 NW5       30.08F
HUNTER AFB     SUNNY     71  50  46 VRB5      30.01F
MOODY AFB      SUNNY     73  47  40 VRB5      30.04F
BRUNSWICK      SUNNY     72  50  46 NW5       30.04S


CITY           SKY/WX    TMP DP  RH WIND       PRES   REMARKS
BAINBRIDGE*    SUNNY     73  54  49 NW3       30.07F
MOULTRIE*      SUNNY     70  46  43 CALM      30.06F
VIDALIA*       SUNNY     72  52  49 NE7       30.04F
WAYCROSS*      SUNNY     74  53  47 N5        30.04S
DOUGLAS*       SUNNY     73  46  38 CALM      30.05F
$$



USA.gov is the U.S. government's official web portal to all federal, state and local government web resources and services.